Weather History for KVPZ - May, 2013

Change the Weather History Date:

Sunday, May 26, 2013

  Actual Average Record
Temperature  
Mean Temperature 57 °F 62 °F  
Max Temperature 71 °F 74 °F 91 °F (2012)
Min Temperature 42 °F 51 °F 37 °F (2002)
Degree Days  
Heating Degree Days 8 5  
Month to date heating degree days 157 200  
Since 1 July heating degree days 6050 6259  
Cooling Degree Days 0 2  
Month to date cooling degree days 59 30  
Year to date cooling degree days 65 35  
Growing Degree Days 6 (Base 50)    
Moisture  
Dew Point 45 °F    
Average Humidity 68    
Maximum Humidity 92    
Minimum Humidity 40    
Precipitation  
Precipitation 0.02 in 0.12 in 0.65 in (2001)
Month to date precipitation 1.60 3.29  
Year to date precipitation 11.87 12.47  
Sea Level Pressure  
Sea Level Pressure 30.25 in    
Wind  
Wind Speed 6 mph (ESE)    
Max Wind Speed 14 mph    
Max Gust Speed 18 mph    
Visibility 10 miles    
Events Rain    
T = Trace of Precipitation, MM = Missing Value Source: NWS Daily Summary

Daily Weather History Graph

Daily Weather History Graph

Search for Another Location

Airport or City:

Trip Planner

Search our weather history database for the weather conditions in past years. The results will help you decide how hot, cold, wet, or windy it might be!

Date:

Astronomy

May. 26, 2013 Rise Set
Actual Time 5:19 AM CDT 8:10 PM CDT
Civil Twilight 4:47 AM CDT 8:43 PM CDT
Nautical Twilight 4:05 AM CDT 9:24 PM CDT
Astronomical Twilight 3:18 AM CDT 10:12 PM CDT
Moon 9:57 PM CDT (5/26) 6:48 AM CDT (5/26)
Length of Visible Light 15h 56m
Length of Day
14h 50m
Waning Gibbous, 96% of the Moon is Illuminated
May 26
Waning Gibbous
May 31
Last Quarter
Jun 8
New
Jun 16
First Quarter
Jun 23
Full

Hourly Weather History & Observations

Time (CDT) Temp. Windchill Dew Point Humidity Pressure Visibility Wind Dir Wind Speed Gust Speed Precip Events Conditions
12:53 AM 46.0 °F 44.8 °F 39.9 °F 79% 30.31 in 10.0 mi North 3.5 mph - N/A   Scattered Clouds
1:53 AM 46.0 °F 44.8 °F 39.0 °F 76% 30.29 in 10.0 mi North 3.5 mph - N/A   Clear
2:53 AM 42.1 °F - 39.9 °F 92% 30.27 in 10.0 mi Calm Calm - N/A   Clear
3:53 AM 42.1 °F 40.2 °F 39.9 °F 92% 30.28 in 10.0 mi NNE 3.5 mph - N/A   Clear
4:53 AM 43.0 °F 40.3 °F 39.9 °F 89% 30.28 in 10.0 mi NE 4.6 mph - N/A   Clear
5:53 AM 45.0 °F 41.2 °F 41.0 °F 86% 30.29 in 10.0 mi ENE 6.9 mph - N/A   Clear
6:53 AM 48.9 °F - 42.1 °F 77% 30.29 in 10.0 mi East 6.9 mph - N/A   Clear
7:53 AM 54.0 °F - 42.1 °F 64% 30.31 in 10.0 mi ESE 5.8 mph - N/A   Clear
8:53 AM 57.9 °F - 43.0 °F 58% 30.31 in 10.0 mi ESE 8.1 mph - N/A   Clear
9:53 AM 63.0 °F - 45.0 °F 52% 30.30 in 10.0 mi ESE 8.1 mph - N/A   Clear
10:53 AM 64.0 °F - 44.1 °F 48% 30.30 in 10.0 mi SE 4.6 mph - N/A   Clear
11:53 AM 64.9 °F - 44.1 °F 47% 30.30 in 10.0 mi SSE 6.9 mph - N/A   Clear
12:53 PM 66.0 °F - 43.0 °F 43% 30.28 in 10.0 mi SSE 9.2 mph - N/A   Clear
1:53 PM 66.9 °F - 44.1 °F 44% 30.25 in 10.0 mi ESE 9.2 mph - N/A   Clear
2:53 PM 68.0 °F - 43.0 °F 40% 30.24 in 10.0 mi ESE 10.4 mph 16.1 mph N/A   Overcast
3:53 PM 69.1 °F - 44.1 °F 40% 30.22 in 10.0 mi SE 8.1 mph - N/A   Mostly Cloudy
4:53 PM 64.0 °F - 48.9 °F 58% 30.22 in 10.0 mi SSW 10.4 mph - N/A   Mostly Cloudy
5:53 PM 64.0 °F - 50.0 °F 60% 30.20 in 10.0 mi Variable 3.5 mph - N/A   Mostly Cloudy
6:53 PM 63.0 °F - 50.0 °F 63% 30.21 in 10.0 mi SW 6.9 mph - N/A   Overcast
7:53 PM 60.1 °F - 52.0 °F 75% 30.19 in 10.0 mi South 4.6 mph - 0.00 in Rain Light Rain
8:53 PM 59.0 °F - 53.1 °F 81% 30.19 in 10.0 mi Calm Calm - 0.01 in   Overcast
9:53 PM 57.9 °F - 53.1 °F 84% 30.19 in 10.0 mi East 4.6 mph - N/A   Overcast
10:53 PM 57.9 °F - 54.0 °F 87% 30.17 in 9.0 mi East 4.6 mph - N/A   Overcast
11:53 PM 57.0 °F - 54.0 °F 89% 30.15 in 7.0 mi East 4.6 mph - 0.01 in Rain Light Rain